Back to catalog

DUBAISAT 2

AliveScienceSSO
NORAD 39419·PAYLOAD·🇦🇪 UAE

Launched Nov 21, 2013 from Dombarovsky

Loading…

Next Passes (next 24 hours)

TLE

FreshSource: Space-Track

Epoch: Sep 14, 2026, 13:40 UTC

1 39419U 13066D   26257.56995880  .00001948  00000-0  12113-3 0  9997
2 39419  97.4655 245.4486 0012752  85.5853 274.6833 15.10723964699889

Track DUBAISAT 2 in real time with AllMySat

Download on the App Store